Home   Weather   Rainy River   Past weeks

Flag for Canada Past Weather in Rainy River, Ontario, Canada — Yesterday and Last 2 Weeks

Now
62 °F

Clear.


Feels Like: 62 °F
Forecast: 59 / 81 °F
Wind: 6 mph from West

Location: Baudette International Airport

Current Time: Jul 26, 2017 at 11:50:25 pm

Latest Report: Jul 26, 2017 at 10:53 pm


Visibility: 10 mi

Pressure: 30.05 "Hg

Humidity: 93%

Dew Point: 60 °F

Location of Rainy RiverLocation

Past Weather in Rainy River — Graph

°F

Rainy River Temperature Yesterday

Maximum temperature yesterday: 80 °F (at 4:53 pm)
Minimum temperature yesterday: 60 °F (at 5:53 am)
Average temperature yesterday: 71 °F

High & Low Weather Summary for the Past Weeks

 TemperatureHumidityPressure
High83 °F (Jul 17, 11:53 am)100% (Jul 12, 9:26 am)30.22 "Hg (Jul 12, 9:26 am)
Low45 °F (Jul 14, 5:53 am)36% (Jul 18, 1:53 pm)29.67 "Hg (Jul 12, 12:53 am)
Average66 °F77%29.97 "Hg
* Reported Jul 11 10:53 pm — Jul 26 10:53 pm, Rainy River. Weather by CustomWeather, © 2017

Note: Actual official high and low records may vary slightly from our data, if they occured in-between our weather recording intervals... More about our weather records

Advertising

Rainy River Weather History for the Previous 24 Hours

Scroll right to see more
 ConditionsComfort  
Time TempWeatherWind HumidityBarometerVisibility
10:53 pm
Wed, Jul 26
62 °FClear.6 mph93%30.05 "Hg10 mi
9:53 pm64 °FClear.No wind87%30.04 "Hg10 mi
8:53 pm69 °FSunny.No wind81%30.03 "Hg10 mi
7:53 pm75 °FSunny.3 mph62%30.02 "Hg10 mi
6:53 pm79 °FSunny.7 mph50%30.01 "Hg10 mi
5:53 pm80 °FSunny.8 mph47%30.01 "Hg10 mi
4:53 pm80 °FSunny.9 mph47%30.01 "Hg10 mi
3:53 pm80 °FSunny.9 mph47%30.01 "Hg10 mi
2:53 pm79 °FSunny.14 mph50%30.02 "Hg10 mi
1:53 pm78 °FSunny.10 mph54%30.02 "Hg10 mi
12:53 pm76 °FPassing clouds.12 mph60%30.01 "Hg10 mi
11:53 am76 °FPassing clouds.14 mph60%30.01 "Hg10 mi
10:53 am75 °FSunny.14 mph62%30.00 "Hg10 mi
9:53 am72 °FPassing clouds.9 mph73%29.98 "Hg10 mi
8:53 am68 °FSunny.9 mph82%29.97 "Hg10 mi
7:53 am64 °FSunny.12 mph84%29.96 "Hg10 mi
6:53 am60 °FSunny.6 mph90%29.95 "Hg10 mi
5:53 am56 °FSunny.5 mph97%29.95 "Hg10 mi
4:53 am59 °FClear.5 mph90%29.94 "Hg10 mi
3:53 am59 °FClear.3 mph93%29.93 "Hg10 mi
2:53 am61 °FClear.7 mph87%29.94 "Hg10 mi
1:53 am61 °FClear.6 mph87%29.94 "Hg10 mi
12:53 am63 °FClear.6 mph84%29.95 "Hg10 mi
11:53 pm
Tue, Jul 25
64 °FClear.7 mph81%29.92 "Hg10 mi
Weather by CustomWeather, © 2017

See weather overviewHow to use our weather pages